This is the latest recevied weather packets stored in our database for station/object AD8BW. If no packets are shown the sender has not sent any weather packets the latest 10 day(s).
| Time | Temp. | Humidity | Pressure | Rain* | Wind** | Luminosity | Snow |
|---|---|---|---|---|---|---|---|
| 1777682993 | 5.56° C | 65% | 1014.2 hPa | 0 mm | - | 0 W/m² | - |
| 1777682393 | 5.56° C | 65% | 1014.2 hPa | 0 mm | - | 0 W/m² | - |
| 1777681793 | 6.11° C | 64% | 1014.1 hPa | 0 mm | - | 0 W/m² | - |
| 1777681200 | 6.11° C | 64% | 1014 hPa | 0 mm | - | 0 W/m² | - |
| 1777680597 | 6.11° C | 65% | 1014 hPa | 0 mm | - | 7 W/m² | - |
| 1777679997 | 6.11° C | 65% | 1013.9 hPa | 0 mm | - | 12 W/m² | - |
| 1777679400 | 6.11° C | 64% | 1013.9 hPa | 0 mm | - | 14 W/m² | - |
| 1777678801 | 6.11° C | 64% | 1013.8 hPa | 0 mm | - | 18 W/m² | - |
| 1777678185 | 6.67° C | 64% | 1013.8 hPa | 0 mm | - | 30 W/m² | - |
| 1777677584 | 6.67° C | 64% | 1013.8 hPa | 0 mm | - | 32 W/m² | - |
| 1777676985 | 6.67° C | 63% | 1013.8 hPa | 0 mm | - | 28 W/m² | - |
| 1777676385 | 6.67° C | 63% | 1013.8 hPa | 0 mm | - | 32 W/m² | - |
| 1777675785 | 6.67° C | 62% | 1013.7 hPa | 0 mm | - | 46 W/m² | - |
| 1777675187 | 6.67° C | 61% | 1013.7 hPa | 0 mm | - | 40 W/m² | - |
| 1777674586 | 6.67° C | 61% | 1013.7 hPa | 0 mm | - | 40 W/m² | - |
| 1777673994 | 7.22° C | 60% | 1013.6 hPa | 0 mm | - | 42 W/m² | - |
| 1777673394 | 7.22° C | 60% | 1013.6 hPa | 0 mm | - | 65 W/m² | - |
| 1777672798 | 7.22° C | 59% | 1013.5 hPa | 0 mm | - | 90 W/m² | - |
| 1777672189 | 7.78° C | 58% | 1013.5 hPa | 0 mm | - | 109 W/m² | - |
| 1777671595 | 7.22° C | 59% | 1013.3 hPa | 0 mm | - | 141 W/m² | - |
| 1777670991 | 7.22° C | 59% | 1013.3 hPa | 0 mm | - | 95 W/m² | - |
| 1777670387 | 7.22° C | 59% | 1013.2 hPa | 0 mm | - | 49 W/m² | - |
| 1777669782 | 7.78° C | 57% | 1013.1 hPa | 0 mm | - | 26 W/m² | - |
| 1777669186 | 7.78° C | 56% | 1013 hPa | 0 mm | - | 49 W/m² | - |
| 1777668581 | 7.78° C | 55% | 1012.9 hPa | 0 mm | - | 109 W/m² | - |
* Rain latest hour (hover to see other rain measurements)
** Current wind speed in m/s (hover to see current wind gust speed)